Location: Bannatyne
(13.0833°N, 59.5333°W)
Time: 23:53:35
(UTC+00:00)

Transit 4A - Pass Details

Date: 23 January 2021
Orbit: 866 x 978 km, 66.8° (Epoch: 03 March)

Event Time Altitude Azimuth Distance (km) Brightness Sun altitude
Rises 22:32:18 0° 217° (SW) 3,624 12.0 -9.4°
Reaches altitude 10° 22:34:59 10° 224° (SW) 2,692 11.4 -10.0°
Maximum altitude 22:40:51 40° 293° (WNW) 1,387 9.3 -11.4°
Drops below altitude 10° 22:46:48 10° 1° (N) 2,720 10.2 -12.8°
Sets 22:49:32 0° 9° (N) 3,667 10.8 -13.4°
